Hourly Data Report for September 03, 2017

All times are specified in Local Standard Time (LST). Add 1 hour to adjust for Daylight Saving Time where and when it is observed.

CLYDE RIVER A
NUNAVUT

70°29'09.000" N
68°31'01.000" W
26.50 m
2400804
71090
YCY

Download Data

Hourly Data (September 2017)
Hourly Data Report for September 3, 2017
Temp Definition
°C
Dew Point Temp Definition
°C
Rel Hum Definition
%
Wind Dir Definition
10's deg

Wind Spd Definition
km/h
Visibility Definition
km
Stn Press Definition
kPa
Hmdx Definition


Wind Chill Definition


Weather Definition


TIME
00:00 Legend Double Dagger 1.5 -1.8 79 29 9 16.1 100.74     LegendNANA
01:00 Legend Double Dagger 1.4 -1.3 82 30 9 16.1 100.74     LegendNANA
02:00 Legend Double Dagger 1.4 -1.5 81 28 9 16.1 100.76     LegendNANA
03:00 Legend Double Dagger 0.7 -1.7 84 LegendMM 4 16.1 100.76     LegendNANA
04:00 Legend Double Dagger 0.9 -2.3 79 26 4 16.1 100.77     LegendNANA
05:00 Legend Double Dagger 0.8 -1.6 84 27 4 16.1 100.78     LegendNANA
06:00 Legend Double Dagger 1.1 -1.3 84 26 4 16.1 100.79     LegendNANA
07:00 Legend Double Dagger 2.3 -1.4 77   0 16.1 100.81     LegendNANA
08:00 Legend Double Dagger 3.3 -3.4 62   0 16.1 100.81     LegendNANA
09:00 Legend Double Dagger 3.8 -2.7 63 18 13 16.1 100.79     LegendNANA
10:00 Legend Double Dagger 4.6 -2.8 59 18 9 16.1 100.76     LegendNANA
11:00 Legend Double Dagger 4.6 -2.5 60 20 11 16.1 100.74     LegendNANA
12:00 Legend Double Dagger 4.3 -2.3 62 12 17 16.1 100.70     LegendNANA
13:00 Legend Double Dagger 4.5 -2.2 62 13 17 16.1 100.73     LegendNANA
14:00 Legend Double Dagger 4.2 -2.6 61 13 17 16.1 100.74     LegendNANA
15:00 Legend Double Dagger 4.1 -2.3 63 13 21 16.1 100.75     LegendNANA
16:00 Legend Double Dagger 3.4 -2.0 68 13 21 16.1 100.75     LegendNANA
17:00 Legend Double Dagger 3.1 -2.1 69 13 22 16.1 100.74     LegendNANA
18:00 Legend Double Dagger 2.8 0.1 82 13 21 16.1 100.73     LegendNANA
19:00 Legend Double Dagger 2.5 -0.4 81 14 18 16.1 100.72     LegendNANA
20:00 Legend Double Dagger 2.3 -0.1 84 14 21 16.1 100.72     LegendNANA
21:00 Legend Double Dagger 2.0 -0.4 84 14 15 16.1 100.70     LegendNANA
22:00 Legend Double Dagger 2.3 -1.3 77 16 18 16.1 100.67     LegendNANA
23:00 Legend Double Dagger 1.9 -1.2 80 15 13 16.1 100.66     LegendNANA

Notes on Data Quality.

Legend

  • E = Estimated
  • M = Missing
  • NA = Not Available
  • ‡ = Partner data that is not subject to review by the National Climate Archives
Date modified: